Location: Erlenbrunn
(49.1717°N, 7.6142°E)
Time: 18:06:03
(UTC+00:00)

Cosmos 1633 Rocket - Pass Details

Date: 25 November 2020
Orbit: 607 x 624 km, 82.5° (Epoch: 23 January)

Event Time Altitude Azimuth Distance (km) Brightness Sun altitude
Rises 16:24:06 0° 1° (N) 2,906 6.3 -7.5°
Reaches altitude 10° 16:26:48 10° 17° (NNE) 1,992 5.3 -7.9°
Maximum altitude 16:30:12 22° 67° (ENE) 1,374 4.2 -8.5°
Drops below altitude 10° 16:33:35 10° 118° (ESE) 1,972 5.3 -9.0°
Sets 16:36:14 0° 135° (SE) 2,868 6.2 -9.4°
